Simultaneous Nadir Overpasses (SNOs) Predictions

Prediction of SNOs between AQUA and NPP Satellite Orbit:

Table of predicted SNOs for the next 14.0 days since TLE Epoch: 4/20/2024
Index Date (AQUA) Time (AQUA) Lat,Lon (AQUA) SZA (AQUA ) Date (NPP) Time (NPP) Lat,Lon (NPP) SZA (NPP ) Distance(km) Time Diff (sec)
1 04/21/2024 16:10:26 81.20,-140.90 76.12 04/21/2024 16:09:41 81.20,-140.84 76.14 1.17 45
2 04/21/2024 16:59:48 -81.22, 27.07 103.94 04/21/2024 17:00:25 -81.21, 26.93 103.95 2.45 37
3 04/24/2024 05:04:01 81.21, 25.98 75.23 04/24/2024 05:03:34 81.21, 26.06 75.23 1.43 27
4 04/24/2024 05:53:23 -81.23,-166.05 104.83 04/24/2024 05:54:18 -81.22,-166.14 104.86 1.65 55
5 04/26/2024 17:57:34 81.21,-167.37 74.40 04/26/2024 17:57:29 81.21,-167.54 74.42 2.91 5
6 04/29/2024 06:01:42 -81.20,-168.52 106.38 04/29/2024 06:00:39 -81.21,-168.37 106.36 2.58 63
7 04/29/2024 06:51:03 81.22, -0.57 73.57 04/29/2024 06:51:22 81.22, -0.49 73.55 1.40 19
8 05/01/2024 18:55:07 -81.22, -1.55 107.20 05/01/2024 18:54:32 -81.22, -1.41 107.20 2.28 35



Historial Predications of SNOs between AQUA and NPP
